Year,Month,Day,Hour,Minute,Value (Times are PST for temperature in C)
2024,03,30,00,00,6.10
2024,03,30,00,01,6.10
2024,03,30,00,02,6.00
2024,03,30,00,03,6.00
2024,03,30,00,04,6.00
2024,03,30,00,05,6.00
2024,03,30,00,06,6.00
2024,03,30,00,07,5.90
2024,03,30,00,08,5.90
2024,03,30,00,09,5.90
2024,03,30,00,10,5.80
2024,03,30,00,11,5.80
2024,03,30,00,12,5.80
2024,03,30,00,13,5.70
2024,03,30,00,14,5.70
2024,03,30,00,15,5.70
2024,03,30,00,16,5.70
2024,03,30,00,17,5.70
2024,03,30,00,18,5.70
2024,03,30,00,19,5.70
2024,03,30,00,20,5.70
2024,03,30,00,21,5.60
2024,03,30,00,22,5.60
2024,03,30,00,23,5.60
2024,03,30,00,24,5.60
2024,03,30,00,25,5.60
2024,03,30,00,26,5.50
2024,03,30,00,27,5.50
2024,03,30,00,28,5.50
2024,03,30,00,29,5.50
2024,03,30,00,30,5.50
2024,03,30,00,31,5.50
2024,03,30,00,32,5.50
2024,03,30,00,33,5.50
2024,03,30,00,34,5.50
2024,03,30,00,35,5.50
2024,03,30,00,36,5.40
2024,03,30,00,37,5.40
2024,03,30,00,38,5.40
2024,03,30,00,39,5.40
2024,03,30,00,40,5.40
2024,03,30,00,41,5.40
2024,03,30,00,42,5.40
2024,03,30,00,43,5.40
2024,03,30,00,44,5.30
2024,03,30,00,45,5.30
2024,03,30,00,46,5.30
2024,03,30,00,47,5.30
2024,03,30,00,48,5.30
2024,03,30,00,49,5.30
2024,03,30,00,50,5.30
2024,03,30,00,51,5.20
2024,03,30,00,52,5.20
2024,03,30,00,53,5.20
2024,03,30,00,54,5.10
2024,03,30,00,55,5.10
2024,03,30,00,56,5.10
2024,03,30,00,57,5.10
2024,03,30,00,58,5.10
2024,03,30,00,59,5.10
2024,03,30,01,00,5.10
2024,03,30,01,01,5.00
2024,03,30,01,02,4.90
2024,03,30,01,03,4.90
2024,03,30,01,04,4.90
2024,03,30,01,05,4.90
2024,03,30,01,06,4.90
2024,03,30,01,07,4.90
2024,03,30,01,08,4.90
2024,03,30,01,09,4.90
2024,03,30,01,10,4.90
2024,03,30,01,11,4.90
2024,03,30,01,12,4.90
2024,03,30,01,13,4.80
2024,03,30,01,14,4.80
2024,03,30,01,15,4.80
2024,03,30,01,16,4.80
2024,03,30,01,17,4.80
2024,03,30,01,18,4.70
2024,03,30,01,19,4.70
2024,03,30,01,20,4.70
2024,03,30,01,21,4.70
2024,03,30,01,22,4.60
2024,03,30,01,23,4.60
2024,03,30,01,24,4.60
2024,03,30,01,25,4.60
2024,03,30,01,26,4.60
2024,03,30,01,27,4.60
2024,03,30,01,28,4.60
2024,03,30,01,29,4.60
2024,03,30,01,30,4.50
2024,03,30,01,31,4.50
2024,03,30,01,32,4.50
2024,03,30,01,33,4.50
2024,03,30,01,34,4.50
2024,03,30,01,35,4.50
2024,03,30,01,36,4.50
2024,03,30,01,37,4.40
2024,03,30,01,38,4.40
2024,03,30,01,39,4.40
2024,03,30,01,40,4.40
2024,03,30,01,41,4.30
2024,03,30,01,42,4.30
2024,03,30,01,43,4.30
2024,03,30,01,44,4.20
2024,03,30,01,45,4.20
2024,03,30,01,46,4.20
2024,03,30,01,47,4.20
2024,03,30,01,48,4.20
2024,03,30,01,49,4.20
2024,03,30,01,50,4.20
2024,03,30,01,51,4.20
2024,03,30,01,52,4.20
2024,03,30,01,53,4.20
2024,03,30,01,54,4.20
2024,03,30,01,55,4.20
2024,03,30,01,56,4.20
2024,03,30,01,57,4.30
2024,03,30,01,58,4.30
2024,03,30,01,59,4.40
2024,03,30,02,00,4.40
2024,03,30,02,01,4.40
2024,03,30,02,02,4.50
2024,03,30,02,03,4.60
2024,03,30,02,04,4.60
2024,03,30,02,05,4.70
2024,03,30,02,06,4.70
2024,03,30,02,07,4.70
2024,03,30,02,08,4.70
2024,03,30,02,09,4.70
2024,03,30,02,10,4.70
2024,03,30,02,11,4.60
2024,03,30,02,12,4.60
2024,03,30,02,13,4.60
2024,03,30,02,14,4.60
2024,03,30,02,15,4.60
2024,03,30,02,16,4.50
2024,03,30,02,17,4.50
2024,03,30,02,18,4.40
2024,03,30,02,19,4.40
2024,03,30,02,20,4.30
2024,03,30,02,21,4.30
2024,03,30,02,22,4.20
2024,03,30,02,23,4.20
2024,03,30,02,24,4.20
2024,03,30,02,25,4.20
2024,03,30,02,26,4.20
2024,03,30,02,27,4.20
2024,03,30,02,28,4.10
2024,03,30,02,29,4.10
2024,03,30,02,30,4.10
2024,03,30,02,31,4.00
2024,03,30,02,32,4.00
2024,03,30,02,33,4.00
2024,03,30,02,34,4.00
2024,03,30,02,35,4.00
2024,03,30,02,36,4.00
2024,03,30,02,37,4.00
2024,03,30,02,38,4.00
2024,03,30,02,39,4.10
2024,03,30,02,40,4.10
2024,03,30,02,41,4.10
2024,03,30,02,42,4.00
2024,03,30,02,43,4.00
2024,03,30,02,44,4.00
2024,03,30,02,45,4.10
2024,03,30,02,46,4.10
2024,03,30,02,47,4.00
2024,03,30,02,48,4.00
2024,03,30,02,49,4.00
2024,03,30,02,50,4.00
2024,03,30,02,51,4.10
2024,03,30,02,52,4.10
2024,03,30,02,53,4.20
2024,03,30,02,54,4.20
2024,03,30,02,55,4.20
2024,03,30,02,56,4.20
2024,03,30,02,57,4.20
2024,03,30,02,58,4.30
2024,03,30,02,59,4.30
2024,03,30,03,00,4.30
2024,03,30,03,01,4.30
2024,03,30,03,02,4.30
2024,03,30,03,03,4.30
2024,03,30,03,04,4.30
2024,03,30,03,05,4.20
2024,03,30,03,06,4.20
2024,03,30,03,07,4.20
2024,03,30,03,08,4.20
2024,03,30,03,09,4.20
2024,03,30,03,10,4.10
2024,03,30,03,11,4.10
2024,03,30,03,12,4.10
2024,03,30,03,13,4.10
2024,03,30,03,14,4.10
2024,03,30,03,15,4.10
2024,03,30,03,16,4.00
2024,03,30,03,17,4.00
2024,03,30,03,18,4.00
2024,03,30,03,19,4.00
2024,03,30,03,20,4.00
2024,03,30,03,21,4.00
2024,03,30,03,22,4.00
2024,03,30,03,23,4.00
2024,03,30,03,24,4.00
2024,03,30,03,25,4.00
2024,03,30,03,26,4.00
2024,03,30,03,27,4.00
2024,03,30,03,28,4.00
2024,03,30,03,29,4.00
2024,03,30,03,30,4.00
2024,03,30,03,31,4.00
2024,03,30,03,32,4.00
2024,03,30,03,33,4.00
2024,03,30,03,34,4.00
2024,03,30,03,35,4.00
2024,03,30,03,36,4.00
2024,03,30,03,37,4.00
2024,03,30,03,38,4.00
2024,03,30,03,39,4.00
2024,03,30,03,40,4.00
2024,03,30,03,41,4.00
2024,03,30,03,42,4.00
2024,03,30,03,43,4.00
2024,03,30,03,44,4.00
2024,03,30,03,45,4.00
2024,03,30,03,46,4.00
2024,03,30,03,47,4.00
2024,03,30,03,48,4.10
2024,03,30,03,49,4.10
2024,03,30,03,50,4.20
2024,03,30,03,51,4.40
2024,03,30,03,52,4.50
2024,03,30,03,53,4.60
2024,03,30,03,54,4.70
2024,03,30,03,55,4.80
2024,03,30,03,56,4.90
2024,03,30,03,57,5.00
2024,03,30,03,58,5.10
2024,03,30,03,59,5.10
2024,03,30,04,00,5.10
2024,03,30,04,01,5.10
2024,03,30,04,02,5.10
2024,03,30,04,03,5.00
2024,03,30,04,04,4.90
2024,03,30,04,05,4.80
2024,03,30,04,06,4.60
2024,03,30,04,07,4.40
2024,03,30,04,08,4.20
2024,03,30,04,09,4.10
2024,03,30,04,10,4.00
2024,03,30,04,11,3.90
2024,03,30,04,12,3.80
2024,03,30,04,13,3.80
2024,03,30,04,14,3.70
2024,03,30,04,15,3.70
2024,03,30,04,16,3.60
2024,03,30,04,17,3.60
2024,03,30,04,18,3.50
2024,03,30,04,19,3.50
2024,03,30,04,20,3.50
2024,03,30,04,21,3.50
2024,03,30,04,22,3.50
2024,03,30,04,23,3.50
2024,03,30,04,24,3.60
2024,03,30,04,25,3.60
2024,03,30,04,26,3.70
2024,03,30,04,27,3.80
2024,03,30,04,28,3.80
2024,03,30,04,29,3.90
2024,03,30,04,30,4.00
2024,03,30,04,31,4.00
2024,03,30,04,32,4.00
2024,03,30,04,33,4.00
2024,03,30,04,34,4.00
2024,03,30,04,35,4.00
2024,03,30,04,36,4.00
2024,03,30,04,37,4.00
2024,03,30,04,38,4.00
2024,03,30,04,39,3.90
2024,03,30,04,40,3.90
2024,03,30,04,41,3.80
2024,03,30,04,42,3.80
2024,03,30,04,43,3.80
2024,03,30,04,44,3.80
2024,03,30,04,45,3.80
2024,03,30,04,46,3.70
2024,03,30,04,47,3.70
2024,03,30,04,48,3.60
2024,03,30,04,49,3.60
2024,03,30,04,50,3.60
2024,03,30,04,51,3.60
2024,03,30,04,52,3.60
2024,03,30,04,53,3.60
2024,03,30,04,54,3.70
2024,03,30,04,55,3.70
2024,03,30,04,56,3.70
2024,03,30,04,57,3.70
2024,03,30,04,58,3.70
2024,03,30,04,59,3.70
2024,03,30,05,00,3.60
2024,03,30,05,01,3.50
2024,03,30,05,02,3.40
2024,03,30,05,03,3.30
2024,03,30,05,04,3.30
2024,03,30,05,05,3.20
2024,03,30,05,06,3.20
2024,03,30,05,07,3.10
2024,03,30,05,08,3.10
2024,03,30,05,09,3.10
2024,03,30,05,10,3.10
2024,03,30,05,11,3.00
2024,03,30,05,12,2.90
2024,03,30,05,13,2.90
2024,03,30,05,14,2.90
2024,03,30,05,15,2.90
2024,03,30,05,16,2.90
2024,03,30,05,17,2.90
2024,03,30,05,18,3.00
2024,03,30,05,19,3.10
2024,03,30,05,20,3.10
2024,03,30,05,21,3.20
2024,03,30,05,22,3.30
2024,03,30,05,23,3.30
2024,03,30,05,24,3.30
2024,03,30,05,25,3.40
2024,03,30,05,26,3.40
2024,03,30,05,27,3.40
2024,03,30,05,28,3.40
2024,03,30,05,29,3.40
2024,03,30,05,30,3.50
2024,03,30,05,31,3.50
2024,03,30,05,32,3.50
2024,03,30,05,33,3.50
2024,03,30,05,34,3.50
2024,03,30,05,35,3.50
2024,03,30,05,36,3.50
2024,03,30,05,37,3.50
2024,03,30,05,38,3.50
2024,03,30,05,39,3.40
2024,03,30,05,40,3.40
2024,03,30,05,41,3.40
2024,03,30,05,42,3.40
2024,03,30,05,43,3.40
2024,03,30,05,44,3.40
2024,03,30,05,45,3.40
2024,03,30,05,46,3.40
2024,03,30,05,47,3.50
2024,03,30,05,48,3.50
2024,03,30,05,49,3.50
2024,03,30,05,50,3.50
2024,03,30,05,51,3.50
2024,03,30,05,52,3.50
2024,03,30,05,53,3.50
2024,03,30,05,54,3.50
2024,03,30,05,55,3.50
2024,03,30,05,56,3.50
2024,03,30,05,57,3.50
2024,03,30,05,58,3.50
2024,03,30,05,59,3.50
2024,03,30,06,00,3.60
2024,03,30,06,01,3.60
2024,03,30,06,02,3.70
2024,03,30,06,03,3.70
2024,03,30,06,04,3.80
2024,03,30,06,05,3.80
2024,03,30,06,06,3.70
2024,03,30,06,07,3.70
2024,03,30,06,08,3.70
2024,03,30,06,09,3.70
2024,03,30,06,10,3.70
2024,03,30,06,11,3.70
2024,03,30,06,12,3.70
2024,03,30,06,13,3.60
2024,03,30,06,14,3.60
2024,03,30,06,15,3.60
2024,03,30,06,16,3.70
2024,03,30,06,17,3.70
2024,03,30,06,18,3.70
2024,03,30,06,19,3.80
2024,03,30,06,20,3.80
2024,03,30,06,21,3.80
2024,03,30,06,22,3.80
2024,03,30,06,23,3.90
2024,03,30,06,24,3.90
2024,03,30,06,25,3.90
2024,03,30,06,26,4.00
2024,03,30,06,27,4.00
2024,03,30,06,28,4.00
2024,03,30,06,29,4.00
2024,03,30,06,30,4.00
2024,03,30,06,31,4.00
2024,03,30,06,32,4.00
2024,03,30,06,33,3.90
2024,03,30,06,34,3.90
2024,03,30,06,35,3.80
2024,03,30,06,36,3.80
2024,03,30,06,37,3.80
2024,03,30,06,38,3.80
2024,03,30,06,39,3.70
2024,03,30,06,40,3.70
2024,03,30,06,41,3.60
2024,03,30,06,42,3.60
2024,03,30,06,43,3.60
2024,03,30,06,44,3.50
2024,03,30,06,45,3.50
2024,03,30,06,46,3.50
2024,03,30,06,47,3.50
2024,03,30,06,48,3.60
2024,03,30,06,49,3.60
2024,03,30,06,50,3.60
2024,03,30,06,51,3.70
2024,03,30,06,52,3.80
2024,03,30,06,53,3.80
2024,03,30,06,54,3.80
2024,03,30,06,55,3.90
2024,03,30,06,56,3.90
2024,03,30,06,57,4.00
2024,03,30,06,58,4.00
2024,03,30,06,59,4.00
2024,03,30,07,00,4.00
2024,03,30,07,01,4.00
2024,03,30,07,02,4.00
2024,03,30,07,03,4.00
2024,03,30,07,04,4.00
2024,03,30,07,05,4.00
2024,03,30,07,06,4.00
2024,03,30,07,07,4.00
2024,03,30,07,08,4.00
2024,03,30,07,09,4.00
2024,03,30,07,10,4.00
2024,03,30,07,11,4.00
2024,03,30,07,12,3.90
2024,03,30,07,13,3.90
2024,03,30,07,14,3.90
2024,03,30,07,15,3.90
2024,03,30,07,16,3.90
2024,03,30,07,17,3.90
2024,03,30,07,18,4.00
2024,03,30,07,19,4.00
2024,03,30,07,20,4.00
2024,03,30,07,21,4.00
2024,03,30,07,22,4.00
2024,03,30,07,23,4.00
2024,03,30,07,24,4.00
2024,03,30,07,25,4.00
2024,03,30,07,26,4.10
2024,03,30,07,27,4.10
2024,03,30,07,28,4.10
2024,03,30,07,29,4.10
2024,03,30,07,30,4.10
2024,03,30,07,31,4.10
2024,03,30,07,32,4.10
2024,03,30,07,33,4.10
2024,03,30,07,34,4.10
2024,03,30,07,35,4.10
2024,03,30,07,36,4.10
2024,03,30,07,37,4.10
2024,03,30,07,38,4.10
2024,03,30,07,39,4.10
2024,03,30,07,40,4.20
2024,03,30,07,41,4.20
2024,03,30,07,42,4.20
2024,03,30,07,43,4.20
2024,03,30,07,44,4.20
2024,03,30,07,45,4.20
2024,03,30,07,46,4.30
2024,03,30,07,47,4.30
2024,03,30,07,48,4.40
2024,03,30,07,49,4.50
2024,03,30,07,50,4.50
2024,03,30,07,51,4.60
2024,03,30,07,52,4.70
2024,03,30,07,53,4.90
2024,03,30,07,54,4.90
2024,03,30,07,55,5.00
2024,03,30,07,56,5.10
2024,03,30,07,57,5.10
2024,03,30,07,58,5.10
2024,03,30,07,59,5.20
2024,03,30,08,00,5.20
2024,03,30,08,01,5.30
2024,03,30,08,02,5.30
2024,03,30,08,03,5.40
2024,03,30,08,04,5.40
2024,03,30,08,05,5.50
2024,03,30,08,06,5.60
2024,03,30,08,07,5.70
2024,03,30,08,08,5.70
2024,03,30,08,09,5.80
2024,03,30,08,10,5.90
2024,03,30,08,11,6.00
2024,03,30,08,12,6.00
2024,03,30,08,13,6.10
2024,03,30,08,14,6.20
2024,03,30,08,15,6.20
2024,03,30,08,16,6.30
2024,03,30,08,17,6.40
2024,03,30,08,18,6.50
2024,03,30,08,19,6.60
2024,03,30,08,20,6.70
2024,03,30,08,21,6.70
2024,03,30,08,22,6.70
2024,03,30,08,23,6.50
2024,03,30,08,24,6.40
2024,03,30,08,25,6.30
2024,03,30,08,26,6.20
2024,03,30,08,27,6.20
2024,03,30,08,28,6.20
2024,03,30,08,29,6.20
2024,03,30,08,30,6.30
2024,03,30,08,31,6.30
2024,03,30,08,32,6.40
2024,03,30,08,33,6.40
2024,03,30,08,34,6.40
2024,03,30,08,35,6.60
2024,03,30,08,36,6.60
2024,03,30,08,37,6.70
2024,03,30,08,38,6.80
2024,03,30,08,39,6.80
2024,03,30,08,40,6.90
2024,03,30,08,41,6.90
2024,03,30,08,42,6.90
2024,03,30,08,43,7.00
2024,03,30,08,44,7.00
2024,03,30,08,45,7.10
2024,03,30,08,46,7.10
2024,03,30,08,47,7.20
2024,03,30,08,48,7.30
2024,03,30,08,49,7.30
2024,03,30,08,50,7.40
2024,03,30,08,51,7.50
2024,03,30,08,52,7.50
2024,03,30,08,53,7.60
2024,03,30,08,54,7.70
2024,03,30,08,55,7.80
2024,03,30,08,56,7.90
2024,03,30,08,57,8.00
2024,03,30,08,58,8.00
2024,03,30,08,59,8.10
2024,03,30,09,00,8.20
2024,03,30,09,01,8.20
2024,03,30,09,02,8.30
2024,03,30,09,03,8.30
2024,03,30,09,04,8.30
2024,03,30,09,05,8.40
2024,03,30,09,06,8.40
2024,03,30,09,07,8.50
2024,03,30,09,08,8.60
2024,03,30,09,09,8.70
2024,03,30,09,10,8.70
2024,03,30,09,11,8.80
2024,03,30,09,12,8.90
2024,03,30,09,13,8.90
2024,03,30,09,14,8.90
2024,03,30,09,15,8.90
2024,03,30,09,16,8.90
2024,03,30,09,17,8.90
2024,03,30,09,18,8.90
2024,03,30,09,19,8.90
2024,03,30,09,20,8.90
2024,03,30,09,21,9.00
2024,03,30,09,22,9.00
2024,03,30,09,23,9.00
2024,03,30,09,24,9.10
2024,03,30,09,25,9.10
2024,03,30,09,26,9.20
2024,03,30,09,27,9.20
2024,03,30,09,28,9.20
2024,03,30,09,29,9.20
2024,03,30,09,30,9.20
2024,03,30,09,31,9.30
2024,03,30,09,32,9.30
2024,03,30,09,33,9.30
2024,03,30,09,34,9.30
2024,03,30,09,35,9.30
2024,03,30,09,36,9.20
2024,03,30,09,37,9.20
2024,03,30,09,38,9.20
2024,03,30,09,39,9.20
2024,03,30,09,40,9.20
2024,03,30,09,41,9.20
2024,03,30,09,42,9.20
2024,03,30,09,43,9.20
2024,03,30,09,44,9.20
2024,03,30,09,45,9.20
2024,03,30,09,46,9.20
2024,03,30,09,47,9.30
2024,03,30,09,48,9.30
2024,03,30,09,49,9.40
2024,03,30,09,50,9.50
2024,03,30,09,51,9.50
2024,03,30,09,52,9.60
2024,03,30,09,53,9.70
2024,03,30,09,54,9.70
2024,03,30,09,55,9.70
2024,03,30,09,56,9.80
2024,03,30,09,57,9.80
2024,03,30,09,58,9.90
2024,03,30,09,59,9.90
2024,03,30,10,00,9.80
2024,03,30,10,01,9.80
2024,03,30,10,02,9.80
2024,03,30,10,03,9.80
2024,03,30,10,04,9.80
2024,03,30,10,05,9.80
2024,03,30,10,06,9.90
2024,03,30,10,07,9.90
2024,03,30,10,08,9.90
2024,03,30,10,09,10.00
2024,03,30,10,10,10.10
2024,03,30,10,11,10.10
2024,03,30,10,12,10.20
2024,03,30,10,13,10.20
2024,03,30,10,14,10.20
2024,03,30,10,15,10.30
2024,03,30,10,16,10.30
2024,03,30,10,17,10.30
2024,03,30,10,18,10.30
2024,03,30,10,19,10.30
2024,03,30,10,20,10.30
2024,03,30,10,21,10.30
2024,03,30,10,22,10.30
2024,03,30,10,23,10.40
2024,03,30,10,24,10.40
2024,03,30,10,25,10.40
2024,03,30,10,26,10.40
2024,03,30,10,27,10.40
2024,03,30,10,28,10.40
2024,03,30,10,29,10.50
2024,03,30,10,30,10.60
2024,03,30,10,31,10.60
2024,03,30,10,32,10.60
2024,03,30,10,33,10.60
2024,03,30,10,34,10.70
2024,03,30,10,35,10.70
2024,03,30,10,36,10.60
2024,03,30,10,37,10.60
2024,03,30,10,38,10.50
2024,03,30,10,39,10.40
2024,03,30,10,40,10.50
2024,03,30,10,41,10.60
2024,03,30,10,42,10.60
2024,03,30,10,43,10.60
2024,03,30,10,44,10.60
2024,03,30,10,45,10.60
2024,03,30,10,46,10.60
2024,03,30,10,47,10.70
2024,03,30,10,48,10.80
2024,03,30,10,49,10.70
2024,03,30,10,50,10.70
2024,03,30,10,51,10.70
2024,03,30,10,52,10.70
2024,03,30,10,53,10.60
2024,03,30,10,54,10.60
2024,03,30,10,55,10.60
2024,03,30,10,56,10.60
2024,03,30,10,57,10.60
2024,03,30,10,58,10.60
2024,03,30,10,59,10.60
2024,03,30,11,00,10.60
2024,03,30,11,01,10.60
2024,03,30,11,02,10.50
2024,03,30,11,03,10.50
2024,03,30,11,04,10.60
2024,03,30,11,05,10.60
2024,03,30,11,06,10.60
2024,03,30,11,07,10.60
2024,03,30,11,08,10.70
2024,03,30,11,09,10.70
2024,03,30,11,10,10.70
2024,03,30,11,11,10.80
2024,03,30,11,12,10.90
2024,03,30,11,13,10.90
2024,03,30,11,14,10.90
2024,03,30,11,15,10.90
2024,03,30,11,16,10.90
2024,03,30,11,17,10.90
2024,03,30,11,18,10.90
2024,03,30,11,19,10.90
2024,03,30,11,20,10.90
2024,03,30,11,21,10.90
2024,03,30,11,22,10.90
2024,03,30,11,23,10.90
2024,03,30,11,24,10.90
2024,03,30,11,25,10.90
2024,03,30,11,26,10.90
2024,03,30,11,27,10.90
2024,03,30,11,28,10.90
2024,03,30,11,29,10.80
2024,03,30,11,30,10.90
2024,03,30,11,31,10.90
2024,03,30,11,32,11.00
2024,03,30,11,33,11.10
2024,03,30,11,34,11.10
2024,03,30,11,35,11.10
2024,03,30,11,36,11.10
2024,03,30,11,37,11.10
2024,03,30,11,38,11.10
2024,03,30,11,39,11.10
2024,03,30,11,40,10.90
2024,03,30,11,41,10.90
2024,03,30,11,42,10.90
2024,03,30,11,43,11.00
2024,03,30,11,44,11.10
2024,03,30,11,45,11.00
2024,03,30,11,46,10.90
2024,03,30,11,47,10.90
2024,03,30,11,48,10.80
2024,03,30,11,49,10.80
2024,03,30,11,50,10.90
2024,03,30,11,51,10.90
2024,03,30,11,52,10.90
2024,03,30,11,53,10.90
2024,03,30,11,54,10.90
2024,03,30,11,55,10.90
2024,03,30,11,56,10.90
2024,03,30,11,57,10.90
2024,03,30,11,58,10.90
2024,03,30,11,59,10.90
2024,03,30,12,00,10.90
2024,03,30,12,01,10.90
2024,03,30,12,02,10.90
2024,03,30,12,03,10.90
2024,03,30,12,04,10.90
2024,03,30,12,05,10.90
2024,03,30,12,06,10.90
2024,03,30,12,07,10.90
2024,03,30,12,08,10.90
2024,03,30,12,09,10.90
2024,03,30,12,10,10.90
2024,03,30,12,11,10.90
2024,03,30,12,12,10.90
2024,03,30,12,13,10.90
2024,03,30,12,14,10.90
2024,03,30,12,15,10.90
2024,03,30,12,16,11.00
2024,03,30,12,17,11.10
2024,03,30,12,18,11.20
2024,03,30,12,19,11.20
2024,03,30,12,20,11.20
2024,03,30,12,21,11.10
2024,03,30,12,22,11.20
2024,03,30,12,23,11.20
2024,03,30,12,24,11.20
2024,03,30,12,25,11.30
2024,03,30,12,26,11.30
2024,03,30,12,27,11.30
2024,03,30,12,28,11.30
2024,03,30,12,29,11.40
2024,03,30,12,30,11.40
2024,03,30,12,31,11.40
2024,03,30,12,32,11.40
2024,03,30,12,33,11.40
2024,03,30,12,34,11.40
2024,03,30,12,35,11.50
2024,03,30,12,36,11.60
2024,03,30,12,37,11.60
2024,03,30,12,38,11.60
2024,03,30,12,39,11.70
2024,03,30,12,40,11.70
2024,03,30,12,41,11.80
2024,03,30,12,42,11.80
2024,03,30,12,43,11.80
2024,03,30,12,44,11.80
2024,03,30,12,45,11.80
2024,03,30,12,46,11.80
2024,03,30,12,47,11.80
2024,03,30,12,48,11.80
2024,03,30,12,49,11.90
2024,03,30,12,50,11.90
2024,03,30,12,51,11.90
2024,03,30,12,52,12.00
2024,03,30,12,53,12.00
2024,03,30,12,54,12.10
2024,03,30,12,55,12.10
2024,03,30,12,56,12.20
2024,03,30,12,57,12.20
2024,03,30,12,58,12.30
2024,03,30,12,59,12.30
2024,03,30,13,00,12.30
2024,03,30,13,01,12.30
2024,03,30,13,02,12.30
2024,03,30,13,03,12.30
2024,03,30,13,04,12.30
2024,03,30,13,05,12.30
2024,03,30,13,06,12.40
2024,03,30,13,07,12.40
2024,03,30,13,08,12.50
2024,03,30,13,09,12.50
2024,03,30,13,10,12.50
2024,03,30,13,11,12.60
2024,03,30,13,12,12.60
2024,03,30,13,13,12.60
2024,03,30,13,14,12.50
2024,03,30,13,15,12.50
2024,03,30,13,16,12.50
2024,03,30,13,17,12.60
2024,03,30,13,18,12.60
2024,03,30,13,19,12.70
2024,03,30,13,20,12.60
2024,03,30,13,21,12.60
2024,03,30,13,22,12.50
2024,03,30,13,23,12.50
2024,03,30,13,24,12.50
2024,03,30,13,25,12.50
2024,03,30,13,26,12.50
2024,03,30,13,27,12.60
2024,03,30,13,28,12.70
2024,03,30,13,29,12.70
2024,03,30,13,30,12.80
2024,03,30,13,31,12.80
2024,03,30,13,32,12.80
2024,03,30,13,33,12.80
2024,03,30,13,34,12.80
2024,03,30,13,35,12.80
2024,03,30,13,36,12.80
2024,03,30,13,37,12.80
2024,03,30,13,38,12.70
2024,03,30,13,39,12.60
2024,03,30,13,40,12.60
2024,03,30,13,41,12.60
2024,03,30,13,42,12.60
2024,03,30,13,43,12.60
2024,03,30,13,44,12.50
2024,03,30,13,45,12.50
2024,03,30,13,46,12.50
2024,03,30,13,47,12.50
2024,03,30,13,48,12.60
2024,03,30,13,49,12.60
2024,03,30,13,50,12.80
2024,03,30,13,51,12.90
2024,03,30,13,52,13.00
2024,03,30,13,53,13.00
2024,03,30,13,54,13.10
2024,03,30,13,55,13.10
2024,03,30,13,56,13.20
2024,03,30,13,57,13.20
2024,03,30,13,58,13.20
2024,03,30,13,59,13.20
2024,03,30,14,00,13.10
2024,03,30,14,01,13.10
2024,03,30,14,02,13.10
2024,03,30,14,03,13.10
2024,03,30,14,04,13.10
2024,03,30,14,05,13.20
2024,03,30,14,06,13.30
2024,03,30,14,07,13.30
2024,03,30,14,08,13.20
2024,03,30,14,09,13.10
2024,03,30,14,10,13.10
2024,03,30,14,11,13.00
2024,03,30,14,12,13.00
2024,03,30,14,13,13.10
2024,03,30,14,14,13.00
2024,03,30,14,15,13.00
2024,03,30,14,16,13.10
2024,03,30,14,17,13.10
2024,03,30,14,18,13.10
2024,03,30,14,19,13.20
2024,03,30,14,20,13.10
2024,03,30,14,21,13.10
2024,03,30,14,22,13.10
2024,03,30,14,23,13.20
2024,03,30,14,24,13.20
2024,03,30,14,25,13.20
2024,03,30,14,26,13.20
2024,03,30,14,27,13.10
2024,03,30,14,28,13.10
2024,03,30,14,29,13.00
2024,03,30,14,30,12.80
2024,03,30,14,31,12.70
2024,03,30,14,32,12.60
2024,03,30,14,33,12.50
2024,03,30,14,34,12.50
2024,03,30,14,35,12.40
2024,03,30,14,36,12.30
2024,03,30,14,37,12.10
2024,03,30,14,38,12.10
2024,03,30,14,39,12.00
2024,03,30,14,40,12.00
2024,03,30,14,41,12.00
2024,03,30,14,42,11.90
2024,03,30,14,43,11.80
2024,03,30,14,44,11.80
2024,03,30,14,45,11.70
2024,03,30,14,46,11.70
2024,03,30,14,47,11.80
2024,03,30,14,48,11.80
2024,03,30,14,49,11.90
2024,03,30,14,50,11.90
2024,03,30,14,51,11.90
2024,03,30,14,52,12.00
2024,03,30,14,53,12.00
2024,03,30,14,54,12.10
2024,03,30,14,55,12.20
2024,03,30,14,56,12.30
2024,03,30,14,57,12.30
2024,03,30,14,58,12.30
2024,03,30,14,59,12.40
2024,03,30,15,00,12.40
2024,03,30,15,01,12.40
2024,03,30,15,02,12.40
2024,03,30,15,03,12.40
2024,03,30,15,04,12.40
2024,03,30,15,05,12.40
2024,03,30,15,06,12.40
2024,03,30,15,07,12.30
2024,03,30,15,08,12.30
2024,03,30,15,09,12.30
2024,03,30,15,10,12.30
2024,03,30,15,11,12.30
2024,03,30,15,12,12.20
2024,03,30,15,13,12.20
2024,03,30,15,14,12.10
2024,03,30,15,15,12.00
2024,03,30,15,16,11.90
2024,03,30,15,17,11.90
2024,03,30,15,18,11.90
2024,03,30,15,19,11.90
2024,03,30,15,20,11.90
2024,03,30,15,21,11.90
2024,03,30,15,22,11.90
2024,03,30,15,23,12.00
2024,03,30,15,24,12.00
2024,03,30,15,25,12.00
2024,03,30,15,26,12.00
2024,03,30,15,27,12.10
2024,03,30,15,28,12.10
2024,03,30,15,29,12.10
2024,03,30,15,30,12.10
2024,03,30,15,31,12.10
2024,03,30,15,32,12.10
2024,03,30,15,33,12.10
2024,03,30,15,34,12.10
2024,03,30,15,35,12.10
2024,03,30,15,36,12.00
2024,03,30,15,37,12.00
2024,03,30,15,38,12.00
2024,03,30,15,39,11.90
2024,03,30,15,40,12.00
2024,03,30,15,41,12.00
2024,03,30,15,42,12.00
2024,03,30,15,43,12.00
2024,03,30,15,44,12.10
2024,03,30,15,45,12.10
2024,03,30,15,46,12.20
2024,03,30,15,47,12.20
2024,03,30,15,48,12.20
2024,03,30,15,49,12.20
2024,03,30,15,50,12.20
2024,03,30,15,51,12.20
2024,03,30,15,52,12.20
2024,03,30,15,53,12.20
2024,03,30,15,54,12.20
2024,03,30,15,55,12.10
2024,03,30,15,56,12.10
2024,03,30,15,57,12.10
2024,03,30,15,58,12.10
2024,03,30,15,59,12.10
2024,03,30,16,00,12.10
2024,03,30,16,01,12.20
2024,03,30,16,02,12.20
2024,03,30,16,03,12.10
2024,03,30,16,04,12.10
2024,03,30,16,05,12.10
2024,03,30,16,06,12.00
2024,03,30,16,07,12.00
2024,03,30,16,08,12.00
2024,03,30,16,09,12.00
2024,03,30,16,10,12.10
2024,03,30,16,11,12.10
2024,03,30,16,12,12.10
2024,03,30,16,13,12.20
2024,03,30,16,14,12.10
2024,03,30,16,15,12.00
2024,03,30,16,16,12.00
2024,03,30,16,17,11.90
2024,03,30,16,18,11.90
2024,03,30,16,19,11.90
2024,03,30,16,20,11.90
2024,03,30,16,21,11.90
2024,03,30,16,22,11.90
2024,03,30,16,23,11.90
2024,03,30,16,24,12.00
2024,03,30,16,25,12.00
2024,03,30,16,26,12.10
2024,03,30,16,27,12.10
2024,03,30,16,28,12.10
2024,03,30,16,29,12.00
2024,03,30,16,30,12.10
2024,03,30,16,31,12.10
2024,03,30,16,32,12.10
2024,03,30,16,33,12.20
2024,03,30,16,34,12.20
2024,03,30,16,35,12.20
2024,03,30,16,36,12.30
2024,03,30,16,37,12.40
2024,03,30,16,38,12.40
2024,03,30,16,39,12.50
2024,03,30,16,40,12.50
2024,03,30,16,41,12.60
2024,03,30,16,42,12.70
2024,03,30,16,43,12.70
2024,03,30,16,44,12.80
2024,03,30,16,45,12.80
2024,03,30,16,46,12.70
2024,03,30,16,47,12.80
2024,03,30,16,48,12.80
2024,03,30,16,49,12.80
2024,03,30,16,50,12.80
2024,03,30,16,51,12.80
2024,03,30,16,52,12.80
2024,03,30,16,53,12.80
2024,03,30,16,54,12.80
2024,03,30,16,55,12.70
2024,03,30,16,56,12.70
2024,03,30,16,57,12.70
2024,03,30,16,58,12.80
2024,03,30,16,59,12.80
2024,03,30,17,00,12.80
2024,03,30,17,01,12.80
2024,03,30,17,02,12.70
2024,03,30,17,03,12.70
2024,03,30,17,04,12.60
2024,03,30,17,05,12.60
2024,03,30,17,06,12.60
2024,03,30,17,07,12.60
2024,03,30,17,08,12.60
2024,03,30,17,09,12.70
2024,03,30,17,10,12.70
2024,03,30,17,11,12.70
2024,03,30,17,12,12.70
2024,03,30,17,13,12.60
2024,03,30,17,14,12.50
2024,03,30,17,15,12.50
2024,03,30,17,16,12.40
2024,03,30,17,17,12.40
2024,03,30,17,18,12.40
2024,03,30,17,19,12.30
2024,03,30,17,20,12.30
2024,03,30,17,21,12.30
2024,03,30,17,22,12.30
2024,03,30,17,23,12.30
2024,03,30,17,24,12.30
2024,03,30,17,25,12.20
2024,03,30,17,26,12.10
2024,03,30,17,27,12.00
2024,03,30,17,28,11.80
2024,03,30,17,29,11.80
2024,03,30,17,30,11.80
2024,03,30,17,31,11.80
2024,03,30,17,32,11.80
2024,03,30,17,33,11.80
2024,03,30,17,34,11.80
2024,03,30,17,35,11.80
2024,03,30,17,36,11.80
2024,03,30,17,37,11.80
2024,03,30,17,38,11.60
2024,03,30,17,39,11.50
2024,03,30,17,40,11.40
2024,03,30,17,41,11.40
2024,03,30,17,42,11.40
2024,03,30,17,43,11.30
2024,03,30,17,44,11.30
2024,03,30,17,45,11.20